Location: Forcarei
(42.5879°N, 8.3520°W)
Time: 22:19:47
(UTC+01:00)

ISS - Visible Passes

Search period start: 24 March 2019 00:00
Search period end: 03 April 2019 01:00
Orbit: 408 x 411 km, 51.6° (Epoch: 24 March)

Date Brightness Start Highest point End Pass type
(mag) Time Alt. Az. Time Alt. Az. Time Alt. Az.
24 Mar -2.9 21:04:09 10° WSW 21:07:22 47° NNW 21:09:56 14° NE visible
24 Mar -0.4 22:42:08 10° NW 22:42:43 13° NW 22:42:43 13° NW visible
25 Mar -3.7 20:13:21 10° WSW 20:16:40 79° NNW 20:19:58 10° NE visible
25 Mar -1.6 21:51:01 10° WNW 21:53:39 21° NNW 21:54:24 20° N visible
26 Mar -1.9 20:59:55 10° W 21:02:47 27° NNW 21:05:41 10° NE visible
26 Mar -0.6 22:37:56 10° NW 22:38:45 13° NNW 22:38:45 13° NNW visible
27 Mar -1.4 21:46:56 10° NW 21:49:14 17° N 21:50:13 16° NNE visible
28 Mar -1.4 20:55:49 10° WNW 20:58:18 19° N 21:00:48 10° NE visible
28 Mar -0.8 22:33:21 10° NW 22:34:22 15° NNW 22:34:22 15° NNW visible
29 Mar -1.5 21:42:33 10° NW 21:44:49 17° N 21:45:43 16° NNE visible
30 Mar -1.4 20:51:35 10° NW 20:53:50 17° N 20:56:06 10° NE visible
30 Mar -1.1 22:28:27 10° NW 22:29:46 18° NNW 22:29:46 18° NNW visible
31 Mar -1.8 22:37:47 10° NW 22:40:19 20° NNE 22:41:03 19° NNE visible
01 Apr -1.5 21:47:00 10° NW 21:49:21 18° N 21:51:41 10° NE visible
01 Apr -1.6 23:23:24 10° NW 23:25:05 25° NNW 23:25:05 25° NNW visible
02 Apr -2.4 22:32:45 10° NW 22:35:42 29° NNE 22:36:21 26° NE visible
